Temp
-16 -16 -15 -15 -15 -14 -14 -14 -14 -14 -14 -14 -14 -14 -14 -14 -13 -13 -14 -14 -14 -14 -14 -14 -14 -14 -14 -14 -14 -14 -14 -14 -14 -14 -14 -14 -14 -14 -14 -14 -14 -14
-16 -16 -16 -15 -15 -15 -14 -14 -15 -14 -14 -14 -14 -14 -14 -14 -13 -13 -14 -14 -14 -14 -14 -14 -14 -14 -14 -14 -14 -14 -14 -14 -14 -14 -14 -14 -14 -14 -14 -14 -14 -14
-15 -15 -16 -15 -15 -15 -15 -15 -15 -15 -14 -14 -14 -14 -14 -14 -14 -13 -14 -14 -14 -14 -14 -14 -14 -14 -15 -15 -14 -14 -14 -14 -14 -14 -14 -14 -14 -14 -14 -14 -14 -14
-15 -15 -15 -15 -15 -15 -15 -15 -15 -15 -15 -14 -14 -14 -14 -14 -14 -14 -14 -14 -14 -14 -14 -14 -14 -15 -15 -15 -15 -14 -14 -14 -14 -14 -14 -14 -14 -14 -14 -14 -14 -14
-15 -15 -15 -15 -15 -15 -14 -15 -15 -15 -15 -15 -15 -14 -14 -14 -14 -14 -14 -14 -14 -14 -14 -14 -14 -14 -15 -15 -15 -15 -14 -14 -14 -14 -14 -14 -14 -14 -14 -14 -14 -14
-15 -15 -14 -14 -14 -14 -14 -14 -15 -15 -15 -15 -15 -15 -14 -14 -14 -14 -14 -14 -14 -14 -14 -14 -14 -14 -14 -15 -15 -15 -14 -14 -14 -14 -14 -14 -14 -14 -14 -14 -14 -15
-14 -14 -14 -14 -14 -14 -14 -14 -14 -14 -15 -15 -15 -15 -15 -15 -15 -14 -14 -14 -14 -14 -14 -14 -14 -14 -14 -14 -15 -15 -15 -15 -15 -14 -14 -14 -15 -15 -15 -15 -15 -15
-14 -15 -15 -15 -14 -14 -14 -14 -14 -14 -14 -15 -15 -15 -15 -15 -15 -15 -14 -14 -14 -14 -14 -14 -14 -14 -14 -14 -14 -15 -15 -15 -15 -15 -14 -15 -15 -15 -15 -15 -15 -15
-15 -15 -15 -15 -14 -14 -14 -14 -14 -14 -14 -14 -15 -15 -15 -15 -15 -15 -15 -15 -15 -14 -14 -14 -15 -15 -15 -15 -15 -15 -15 -15 -15 -15 -15 -15 -15 -15 -15 -15 -15 -15
-15 -15 -15 -15 -15 -15 -14 -14 -14 -14 -14 -14 -14 -15 -15 -15 -15 -15 -15 -15 -15 -15 -15 -15 -15 -15 -15 -15 -15 -15 -15 -15 -15 -15 -15 -15 -15 -15 -15 -15 -15 -15
-15 -15 -15 -15 -15 -15 -14 -14 -15 -15 -15 -15 -15 -15 -15 -15 -15 -15 -15 -15 -15 -15 -15 -15 -15 -15 -15 -15 -15 -15 -15 -15 -15 -15 -15 -15 -15 -15 -15 -15 -15 -15
-15 -15 -15 -15 -15 -15 -15 -14 -15 -15 -15 -15 -15 -15 -15 -15 -15 -15 -15 -15 -15 -15 -15 -15 -15 -15 -15 -15 -15 -15 -15 -15 -15 -15 -15 -15 -15 -15 -15 -15 -15 -15
-15 -15 -15 -15 -15 -15 -15 -15 -15 -15 -15 -15 -15 -15 -15 -15 -16 -16 -15 -15 -15 -15 -15 -15 -15 -15 -15 -15 -15 -15 -15 -15 -15 -15 -15 -15 -15 -15 -15 -15 -15 -15
-15 -15 -15 -15 -15 -15 -15 -15 -15 -15 -15 -15 -15 -15 -15 -15 -16 -16 -16 -15 -15 -15 -15 -15 -15 -15 -15 -15 -15 -15 -15 -15 -15 -15 -15 -15 -15 -15 -15 -15 -15 -15
-15 -15 -15 -15 -15 -15 -15 -15 -15 -15 -15 -15 -15 -15 -15 -15 -15 -16 -16 -16 -16 -15 -15 -15 -15 -15 -15 -15 -15 -15 -15 -15 -15 -15 -15 -15 -15 -15 -15 -15 -15 -15
-15 -15 -15 -15 -15 -15 -15 -15 -15 -15 -15 -15 -15 -15 -15 -15 -15 -16 -16 -16 -16 -16 -15 -15 -15 -15 -15 -15 -15 -15 -15 -15 -15 -15 -15 -15 -15 -15 -15 -15 -15 -15
-15 -15 -15 -15 -15 -15 -15 -15 -15 -15 -15 -15 -15 -15 -16 -15 -15 -16 -16 -16 -16 -16 -16 -15 -15 -15 -15 -15 -15 -15 -15 -15 -15 -15 -15 -15 -15 -15 -15 -15 -15 -15
-15 -15 -15 -15 -15 -15 -15 -15 -15 -15 -15 -15 -15 -16 -16 -16 -16 -16 -16 -16 -16 -16 -16 -16 -16 -16 -16 -16 -15 -15 -15 -15 -16 -16 -16 -16 -16 -16 -15 -15 -15 -15
-14 -14 -15 -15 -15 -15 -15 -15 -15 -15 -15 -15 -15 -16 -16 -16 -16 -16 -16 -16 -16 -16 -16 -16 -16 -16 -16 -16 -16 -15 -15 -15 -15 -16 -16 -16 -16 -16 -16 -15 -15 -15
-15 -15 -15 -15 -15 -15 -15 -15 -15 -15 -15 -15 -15 -15 -16 -16 -16 -16 -16 -16 -16 -16 -16 -16 -16 -16 -16 -16 -16 -16 -15 -15 -15 -16 -16 -16 -16 -16 -16 -16 -16 -15
-15 -15 -15 -15 -15 -15 -15 -15 -15 -15 -15 -15 -14 -15 -15 -15 -15 -15 -15 -16 -16 -16 -16 -16 -16 -16 -16 -16 -16 -16 -16 -15 -16 -16 -16 -16 -16 -16 -16 -16 -16 -16
-15 -15 -15 -15 -15 -15 -15 -15 -15 -15 -15 -14 -14 -15 -15 -15 -15 -15 -15 -15 -16 -16 -16 -16 -16 -16 -16 -16 -16 -16 -16 -16 -16 -16 -16 -16 -16 -16 -16 -16 -16 -16
-15 -15 -15 -15 -15 -15 -15 -15 -15 -14 -14 -14 -14 -15 -15 -15 -15 -15 -15 -15 -16 -16 -16 -16 -16 -16 -16 -16 -16 -16 -16 -16 -16 -16 -16 -16 -16 -16 -16 -16 -16 -16
-15 -15 -15 -15 -15 -15 -15 -15 -15 -14 -14 -14 -14 -14 -15 -15 -15 -15 -15 -15 -15 -16 -16 -16 -16 -16 -16 -16 -16 -16 -16 -16 -16 -16 -16 -16 -16 -16 -16 -16 -17 -17
-15 -15 -15 -15 -15 -15 -15 -15 -15 -14 -14 -15 -15 -15 -15 -15 -15 -15 -15 -15 -15 -16 -16 -16 -16 -16 -16 -16 -16 -16 -16 -16 -16 -16 -16 -16 -16 -16 -17 -17 -17 -17
-15 -15 -15 -15 -15 -15 -15 -15 -15 -14 -14 -15 -15 -15 -15 -15 -15 -15 -15 -15 -15 -16 -16 -16 -16 -16 -16 -16 -16 -16 -16 -16 -16 -16 -16 -16 -16 -17 -17 -17 -17 -17
Height
5764 5766 5767 5767 5767 5767 5767 5768 5768 5769 5771 5771 5772 5772 5773 5774 5775 5774 5776 5779 5780 5780 5780 5781 5782 5782 5782 5782 5783 5784 5784 5784 5785 5785 5786 5786 5787 5787 5788 5789 5789 5790
5760 5761 5763 5763 5764 5764 5764 5765 5766 5768 5769 5769 5770 5771 5771 5772 5773 5773 5775 5777 5778 5779 5779 5780 5781 5781 5780 5780 5781 5781 5782 5782 5783 5783 5784 5784 5785 5785 5786 5787 5787 5788
5758 5757 5758 5760 5761 5761 5762 5763 5764 5765 5766 5767 5768 5769 5769 5770 5771 5772 5774 5775 5776 5777 5777 5778 5779 5779 5779 5779 5779 5780 5781 5781 5781 5781 5782 5782 5783 5783 5784 5785 5785 5786
5758 5755 5754 5757 5758 5759 5760 5761 5762 5763 5764 5765 5766 5767 5767 5768 5770 5771 5772 5773 5774 5775 5775 5777 5777 5777 5777 5777 5778 5778 5779 5780 5780 5780 5780 5780 5781 5782 5782 5783 5784 5784
5756 5755 5753 5753 5755 5757 5758 5759 5760 5761 5762 5763 5764 5765 5765 5766 5767 5768 5770 5771 5772 5773 5774 5775 5775 5776 5776 5776 5776 5777 5777 5778 5778 5778 5779 5779 5780 5780 5781 5781 5782 5783
5751 5752 5751 5750 5752 5754 5756 5756 5757 5758 5759 5760 5762 5762 5763 5764 5765 5767 5768 5770 5771 5771 5772 5772 5773 5774 5774 5775 5774 5775 5775 5776 5776 5777 5777 5778 5778 5779 5779 5780 5781 5781
5745 5747 5750 5750 5749 5750 5752 5754 5755 5755 5756 5758 5759 5760 5761 5762 5763 5764 5766 5767 5768 5769 5770 5770 5770 5771 5772 5772 5772 5772 5773 5774 5774 5775 5776 5776 5777 5777 5778 5778 5779 5780
5742 5744 5749 5752 5750 5748 5749 5751 5752 5753 5754 5755 5756 5757 5758 5759 5760 5761 5763 5765 5766 5767 5767 5768 5768 5769 5769 5770 5770 5770 5771 5771 5772 5773 5773 5774 5775 5775 5776 5776 5777 5778
5739 5740 5745 5750 5751 5748 5747 5747 5749 5750 5751 5752 5753 5754 5756 5756 5757 5759 5760 5762 5764 5765 5766 5766 5766 5767 5767 5767 5768 5768 5769 5769 5770 5771 5771 5772 5772 5773 5774 5775 5775 5776
5736 5736 5739 5744 5748 5747 5745 5744 5745 5747 5748 5749 5751 5752 5753 5754 5755 5757 5758 5760 5762 5763 5764 5764 5764 5765 5765 5765 5765 5766 5767 5768 5768 5769 5769 5769 5770 5771 5772 5773 5773 5774
5734 5735 5736 5739 5743 5745 5743 5742 5742 5744 5745 5746 5748 5749 5751 5752 5753 5755 5757 5758 5759 5761 5762 5762 5762 5762 5763 5763 5763 5764 5764 5765 5766 5767 5767 5767 5768 5769 5770 5770 5771 5771
5734 5735 5736 5738 5740 5742 5741 5739 5740 5741 5743 5744 5745 5747 5748 5749 5751 5753 5754 5755 5756 5758 5759 5760 5760 5760 5760 5760 5761 5761 5762 5763 5764 5764 5765 5765 5766 5766 5767 5768 5768 5769
5732 5734 5736 5737 5738 5739 5739 5738 5738 5739 5740 5741 5743 5745 5746 5748 5749 5750 5751 5752 5753 5754 5756 5757 5758 5758 5758 5758 5758 5759 5760 5761 5762 5762 5763 5763 5764 5764 5765 5765 5766 5767
5730 5732 5734 5735 5736 5737 5737 5737 5737 5738 5738 5738 5740 5742 5744 5746 5747 5747 5747 5748 5749 5751 5753 5754 5755 5756 5756 5756 5756 5757 5758 5759 5759 5760 5761 5761 5761 5762 5762 5763 5764 5764
5728 5729 5731 5732 5734 5734 5735 5735 5735 5736 5735 5735 5736 5738 5741 5743 5744 5744 5744 5745 5746 5748 5749 5750 5751 5753 5753 5753 5754 5755 5755 5756 5757 5758 5758 5758 5759 5759 5760 5760 5761 5762
5726 5727 5728 5729 5730 5731 5732 5731 5731 5732 5731 5731 5733 5735 5737 5739 5740 5740 5741 5742 5743 5744 5746 5747 5748 5749 5750 5750 5751 5752 5753 5754 5755 5755 5756 5756 5756 5756 5757 5758 5759 5760
5723 5724 5724 5726 5727 5727 5727 5727 5726 5727 5727 5728 5729 5731 5734 5735 5736 5736 5738 5739 5740 5741 5742 5744 5745 5746 5746 5747 5747 5748 5750 5751 5752 5753 5753 5753 5753 5754 5755 5757 5757 5758
5720 5720 5720 5722 5723 5724 5724 5723 5723 5723 5724 5724 5726 5728 5730 5732 5732 5732 5734 5736 5737 5738 5739 5740 5741 5742 5743 5744 5744 5744 5745 5747 5749 5750 5751 5751 5750 5751 5753 5754 5755 5755
5717 5717 5717 5719 5720 5720 5720 5720 5720 5721 5721 5721 5723 5724 5726 5728 5728 5728 5731 5732 5733 5735 5737 5738 5738 5738 5739 5740 5741 5741 5741 5742 5745 5747 5748 5748 5748 5748 5749 5750 5751 5751
5713 5714 5715 5716 5716 5716 5717 5717 5717 5719 5719 5718 5719 5721 5722 5723 5724 5725 5727 5728 5729 5731 5733 5734 5735 5735 5735 5736 5737 5738 5738 5738 5740 5743 5744 5745 5745 5745 5746 5746 5747 5748
5711 5711 5711 5712 5712 5713 5714 5715 5715 5717 5717 5716 5715 5717 5718 5719 5719 5721 5723 5724 5725 5727 5728 5730 5731 5732 5732 5732 5733 5734 5734 5735 5736 5738 5740 5741 5742 5743 5743 5743 5744 5744
5708 5708 5708 5708 5709 5709 5710 5712 5713 5714 5714 5712 5711 5712 5714 5714 5715 5717 5719 5720 5721 5722 5724 5725 5726 5728 5729 5729 5730 5730 5731 5731 5733 5734 5735 5736 5738 5739 5740 5740 5740 5740
5705 5705 5704 5704 5705 5705 5707 5708 5709 5710 5710 5708 5708 5708 5709 5710 5712 5714 5715 5716 5717 5718 5719 5721 5722 5723 5724 5725 5727 5727 5727 5728 5729 5729 5730 5732 5734 5735 5736 5737 5737 5736
5701 5701 5701 5701 5701 5702 5703 5704 5705 5706 5705 5705 5706 5706 5706 5706 5708 5710 5711 5712 5713 5714 5715 5716 5717 5718 5719 5720 5722 5723 5724 5724 5725 5725 5726 5728 5729 5731 5732 5732 5732 5732
5698 5698 5697 5698 5698 5698 5699 5700 5701 5702 5702 5702 5703 5703 5702 5702 5704 5706 5707 5707 5709 5710 5711 5712 5713 5713 5714 5715 5717 5718 5719 5720 5721 5721 5722 5723 5724 5726 5727 5727 5727 5727
5694 5694 5693 5694 5694 5695 5695 5696 5697 5698 5698 5697 5699 5700 5699 5698 5699 5701 5702 5703 5705 5706 5707 5708 5709 5709 5710 5711 5712 5713 5714 5715 5716 5717 5717 5718 5719 5720 5721 5722 5722 5722
Wind_Speed
18 15 13 12 12 12 11 9 9 10 11 14 15 15 14 14 16 18 17 16 17 17 17 16 16 17 18 18 17 16 15 14 14 14 14 14 15 15 15 16 16 16
21 16 13 11 11 12 11 9 9 10 11 13 14 14 14 15 16 17 16 16 17 17 17 17 17 17 17 17 17 15 14 13 14 14 14 14 14 14 14 15 15 15
22 17 13 11 11 12 12 10 10 11 11 12 13 14 14 15 16 16 16 17 17 17 18 18 17 17 17 18 17 16 15 15 15 15 15 14 13 13 14 14 14 14
20 16 14 11 11 13 13 12 11 12 13 14 14 15 15 16 16 16 17 17 17 17 18 18 19 19 19 19 18 18 17 17 16 16 15 14 13 14 14 14 14 14
19 16 15 13 12 14 14 14 13 12 13 14 15 15 15 15 16 17 17 16 16 17 18 19 19 19 19 19 19 18 18 17 16 15 14 14 14 14 14 14 15 15
23 20 18 17 16 15 15 15 14 12 12 13 14 14 14 15 15 16 16 15 15 16 17 18 19 19 19 19 19 18 17 16 16 16 15 15 15 15 15 15 15 16
27 22 19 19 18 16 16 15 14 13 12 12 13 13 13 14 14 14 13 13 14 15 17 18 19 19 18 18 18 18 17 16 16 16 16 16 15 15 15 15 16 16
26 21 17 18 17 16 15 13 13 13 12 12 13 13 13 13 14 14 13 13 14 15 17 18 18 18 18 18 18 17 17 17 16 16 16 16 16 16 16 16 16 16
25 21 18 18 17 15 14 13 13 13 13 13 13 13 13 13 14 14 13 14 15 16 17 17 17 17 17 18 18 17 17 17 16 16 17 17 18 17 18 17 17 16
24 23 21 21 20 17 16 14 15 15 16 16 15 14 13 14 15 15 15 15 16 17 17 16 16 16 16 17 17 17 17 17 16 17 17 18 18 17 17 18 18 17
23 24 23 22 22 20 18 17 18 18 17 18 17 16 16 16 16 16 16 16 18 18 18 17 17 17 16 17 17 17 17 16 16 16 17 17 17 17 17 18 18 18
19 21 21 21 23 23 20 20 19 17 17 18 19 18 18 18 18 17 17 18 19 19 19 18 17 17 17 18 18 18 17 16 16 16 16 16 16 16 17 17 17 17
19 19 19 20 23 25 24 21 18 17 17 19 20 20 19 18 18 19 19 20 20 20 20 19 18 17 17 18 19 18 18 17 17 16 15 15 15 16 16 17 17 17
19 19 18 18 21 26 28 23 17 16 18 21 22 21 20 19 20 21 22 22 21 21 21 21 20 19 19 19 19 19 19 19 18 18 16 16 16 16 17 17 17 18
16 18 19 19 20 23 29 29 22 17 18 23 25 24 22 21 22 24 24 23 22 22 22 22 22 22 22 21 20 20 20 20 20 20 19 18 18 18 18 18 17 18
16 17 18 19 19 20 25 31 29 25 23 24 26 27 26 23 24 25 25 24 23 23 23 24 24 25 25 24 22 21 21 21 22 22 21 20 20 19 18 17 17 17
18 19 19 19 18 19 22 27 28 27 26 25 24 27 28 25 25 27 26 25 25 24 25 25 25 27 28 27 25 24 23 22 22 22 22 21 21 20 19 17 17 18
20 21 22 21 20 19 20 24 26 26 26 27 25 26 28 28 27 28 26 26 26 26 26 26 26 27 29 29 28 27 26 24 23 22 21 21 22 21 20 19 19 20
20 22 23 23 22 21 21 23 25 25 27 28 26 26 29 30 29 29 27 28 28 27 27 27 26 27 29 29 29 29 28 27 25 24 22 22 22 22 21 21 21 22
22 24 24 24 25 24 23 23 24 24 26 30 30 28 30 32 32 30 29 29 30 29 29 28 27 27 28 29 30 30 29 28 27 25 24 24 23 23 22 23 23 24
22 24 24 24 25 24 23 23 23 23 26 31 34 32 31 33 33 32 31 31 31 30 30 30 28 27 28 29 30 30 29 28 27 26 25 25 24 24 23 24 24 26
21 23 24 24 24 24 23 22 23 23 25 32 38 37 34 34 35 34 33 32 31 31 31 31 30 29 28 28 29 29 29 28 26 26 25 25 25 25 24 25 26 27
20 22 24 24 25 26 26 24 22 24 26 31 37 38 37 36 35 34 33 33 32 31 31 31 32 31 30 29 29 29 30 29 27 26 26 25 25 26 26 27 28 29
21 22 24 24 25 27 28 25 23 26 29 31 33 37 38 38 36 34 34 35 34 32 31 31 33 33 32 31 31 30 30 29 28 28 27 27 27 28 29 30 31 32
21 21 21 21 22 25 27 27 26 29 33 34 34 37 40 40 38 35 37 38 36 34 32 32 33 35 34 33 32 31 31 30 30 30 31 32 32 32 32 33 34 35
22 22 21 21 22 23 26 30 33 36 39 40 38 38 41 44 42 39 39 39 36 34 33 33 34 35 35 34 33 32 32 32 33 33 34 35 35 34 32 34 36 37
Wind_Direction
225 234 241 245 242 232 224 221 222 221 219 220 219 217 218 222 227 235 239 239 238 241 244 244 243 241 242 241 238 236 234 233 236 235 232 232 232 232 233 235 235 234
216 219 227 236 239 230 221 217 220 221 217 217 218 216 218 223 231 241 248 248 246 246 246 245 243 242 242 243 242 239 236 236 238 237 236 234 234 234 233 232 232 230
214 209 213 228 235 228 221 215 217 220 217 217 219 219 222 227 234 241 246 250 250 250 250 248 245 244 244 245 245 244 244 244 241 239 238 235 232 232 230 229 229 226
218 211 205 215 227 226 221 216 215 220 219 221 226 229 230 230 232 237 241 246 250 252 254 252 248 246 245 245 246 246 246 244 240 235 233 228 223 224 225 223 222 220
222 219 208 208 218 221 220 216 214 217 221 227 234 237 236 233 233 236 240 243 247 250 252 250 248 245 242 242 242 243 243 240 233 226 221 218 218 218 217 216 216 215
219 223 218 213 212 214 217 216 214 216 223 233 240 241 239 238 239 240 242 243 243 247 249 248 247 244 240 238 237 238 237 232 224 218 214 213 211 209 210 211 211 211
215 223 226 216 208 207 212 216 218 219 222 230 237 242 245 246 246 246 246 246 246 247 249 248 246 246 243 240 237 235 233 226 218 214 213 209 204 204 207 207 207 209
214 219 221 216 209 204 206 212 218 221 222 226 231 237 244 248 251 252 252 252 254 254 253 250 248 247 246 244 240 234 230 225 219 214 213 210 205 205 207 207 208 211
213 210 208 214 211 207 210 208 210 220 222 225 229 232 239 244 245 248 251 255 259 259 256 254 251 248 247 246 243 236 229 225 221 218 215 212 208 206 208 209 212 215
211 204 201 209 210 213 221 211 205 216 220 222 226 226 230 236 238 240 246 252 258 258 254 252 249 247 245 244 242 238 231 227 225 222 218 215 211 209 211 213 217 221
215 207 201 206 209 212 223 219 210 214 220 223 225 222 221 226 231 236 242 250 254 253 250 248 248 247 245 243 242 240 237 233 228 222 217 214 212 212 214 217 220 222
218 212 210 218 216 212 219 225 222 219 227 234 232 227 223 221 225 232 239 245 249 250 248 249 250 250 248 246 244 244 243 239 231 220 212 211 212 214 217 219 221 222
218 219 226 230 224 218 216 223 231 232 237 243 241 235 229 225 225 230 236 242 247 250 251 250 249 248 248 247 245 244 243 239 231 220 215 216 219 221 222 222 222 222
221 227 235 234 231 228 221 223 241 247 241 241 241 237 234 232 229 231 235 240 245 249 251 251 248 244 242 242 241 239 238 236 230 225 225 230 232 233 232 229 226 225
231 233 239 244 247 242 232 231 244 258 254 248 244 240 237 235 233 234 236 239 243 247 249 250 248 244 241 239 237 235 233 232 232 231 235 241 244 243 242 239 235 233
250 249 249 252 254 252 244 240 245 258 262 258 252 245 240 237 235 237 239 242 245 246 248 250 249 246 243 240 237 235 231 230 232 235 240 247 251 251 251 249 245 242
259 259 258 256 256 258 253 247 250 259 259 256 254 247 241 238 237 238 240 244 248 249 250 252 251 247 243 241 240 238 235 233 233 236 241 247 252 255 255 251 247 244
260 260 261 262 262 262 257 252 257 264 261 255 252 245 238 237 239 240 241 244 248 251 253 254 254 251 245 240 239 241 240 238 237 238 241 246 252 256 257 253 249 246
263 263 264 266 264 261 261 259 258 264 262 255 250 243 235 235 239 241 241 244 248 252 254 255 256 256 251 243 240 241 243 243 241 239 241 246 251 256 259 259 257 254
265 265 263 265 265 261 262 263 261 261 259 253 248 243 236 235 240 242 241 244 248 252 254 255 255 256 254 249 244 243 244 246 245 243 241 244 248 252 256 258 259 259
264 267 263 261 263 260 258 261 261 258 253 249 246 243 240 241 243 243 242 244 248 252 255 256 256 255 255 252 249 247 247 247 247 246 244 243 244 246 250 254 256 258
263 268 268 266 265 260 256 259 258 253 251 248 242 239 240 245 248 246 244 245 248 252 255 257 257 256 255 254 252 250 250 249 249 249 248 248 247 247 248 251 253 255
261 262 265 267 267 261 256 257 256 251 249 248 243 241 242 248 252 249 243 243 248 252 255 258 258 257 256 255 254 252 251 250 250 250 251 252 254 254 253 251 252 253
263 261 260 262 263 259 254 255 255 249 248 250 250 247 245 248 255 252 242 241 249 255 256 257 257 257 257 256 255 254 252 252 252 252 254 256 258 259 258 254 252 251
262 261 256 252 253 253 250 251 251 247 248 252 250 245 243 246 252 250 240 241 251 257 257 257 258 257 257 257 257 257 256 255 254 255 258 260 261 261 261 258 253 251
258 259 259 257 258 258 252 248 244 240 240 241 238 237 240 243 246 246 241 243 252 255 253 255 257 257 258 258 258 258 258 258 258 259 261 263 263 263 262 260 255 251